Skip Page Navigation
NASA JPL Caltech
NASA Logo - Jet Propulsion Laboratory + View the NASA Portal
+ Near-Earth Object (NEO) Program
Search JPL
JPL Home Earth Solar System Stars & Galaxies Technology
JPL Solar System Dynamics
BODIES ORBITS EPHEMERIDES TOOLS PHYSICAL DATA DISCOVERY FAQ SITE MAP
JPL Small-Body Database Browser
Search: [ help ]  
14864 (1990 QK4)
Classification: Main-belt Asteroid          SPK-ID: 2014864
Ephemeris | Orbit Diagram | Orbital Elements | Physical Parameters | Discovery Circumstances ]

[ show orbit diagram ]
Orbital Elements at Epoch 2457000.5 (2014-Dec-09.0) TDB
Reference: JPL 11 (heliocentric ecliptic J2000)
 Element Value Uncertainty (1-sigma)   Units 
e .2206354514999602 5.7905e-08  
a 2.380953803109051 1.3423e-08 AU
q 1.855630985759538 1.4168e-07 AU
i 2.660874398620732 6.0366e-06 deg
node 157.1700158176352 0.00010744 deg
peri 203.7430977971717 0.00010808 deg
M 203.5537212105194 1.4073e-05 deg
tp 2457583.659852110204
(2016-Jul-14.15985211)
5.5689e-05 JED
period 1341.91460726383
3.67
1.1348e-05
3.107e-08
d
yr
n .268273404321935 2.2686e-09 deg/d
Q 2.906276620458563 1.6384e-08 AU
  Orbit Determination Parameters
   # obs. used (total)      856  
   data-arc span      9038 days (24.74 yr)  
   first obs. used      1990-08-23  
   last obs. used      2015-05-22  
   planetary ephem.      DE431  
   SB-pert. ephem.      SB431-BIG16  
   condition code      0  
   fit RMS      .54845  
   data source      ORB  
   producer      Otto Matic  
   solution date      2015-Jun-04 16:21:52  

Additional Information
 Earth MOID = .853023 AU 
 T_jup = 3.504 
[ show covariance matrix ]

Ephemeris | Orbit Diagram | Orbital Elements | Physical Parameters | Discovery Circumstances ]

Physical Parameter Table
Parameter Symbol Value Units Sigma Reference Notes
absolute magnitude H 15.0 mag n/a MPO337384  

14864 (1990 QK4)          Discovered 1990-Aug-23 by Holt, H. E. at Palomar
Reference: 20000523/Numbers.arcLast Updated: 2004-04-19

Alternate Designations
 1990 QK4 = 1996 FO13 
Ephemeris | Orbit Diagram | Orbital Elements | Physical Parameters | Discovery Circumstances ]
ABOUT SSD CREDITS/AWARDS PRIVACY/COPYRIGHT GLOSSARY LINKS
FirstGov 2015-Jul-04 13:39 UT
(server date/time)  
NASA Home Page
Site Manager:   Ryan S. Park
Webmaster  Alan B. Chamberlin